LU9DDB Weather Reports


Display with metric or nautical units.
time (UTC)temp
F
wind
direction
speed
MPH
gust
MPH
rain 1hr
in
rain 24hr
in
rain mn
in
humidity
%
barometer
mb
20260508124535 47 237 11.0 25.0 0.00 0.05 0.02 76 1000.7
20260508123043 47 270 9.0 21.0 0.00 0.05 0.02 77 1000.5
20260508121530 47 254 8.0 21.0 0.00 0.05 0.02 78 1000.3
20260508120024 47 207 7.0 22.0 0.00 0.05 0.02 78 1000.1
20260508114521 46 257 9.0 21.0 0.00 0.05 0.02 80 999.9
20260508113020 46 250 8.0 26.0 0.00 0.05 0.02 81 999.7
20260508111516 46 261 8.0 24.0 0.00 0.05 0.02 83 999.7
20260508110013 45 265 5.0 25.0 0.00 0.05 0.02 83 999.6
20260508104512 45 265 9.0 20.0 0.00 0.05 0.02 86 999.5
20260508103012 45 250 9.0 19.0 0.00 0.05 0.02 87 999.2
20260508101508 45 220 9.0 23.0 0.00 0.05 0.02 87 999.1
20260508100005 45 267 10.0 26.0 0.00 0.05 0.02 87 998.9
20260508094503 45 268 7.0 21.0 0.00 0.05 0.02 87 998.5
20260508093008 45 242 9.0 20.0 0.00 0.05 0.02 87 998.3
20260508091606 45 265 5.0 14.0 0.00 0.05 0.02 87 998.2
20260508090115 45 282 6.0 16.0 0.00 0.05 0.02 88 998.1
20260508084557 46 200 9.0 20.0 0.00 0.05 0.02 85 998.1
20260508083054 47 230 10.0 26.0 0.00 0.05 0.02 81 998.1
20260508081604 47 261 7.0 20.0 0.00 0.05 0.02 80 998.1
20260508080052 47 241 10.0 19.0 0.00 0.05 0.02 78 998.0
20260508074551 47 244 9.0 20.0 0.00 0.05 0.02 79 998.0
20260508073106 46 215 8.0 18.0 0.00 0.05 0.02 82 998.0
20260508071549 46 221 9.0 20.0 0.00 0.05 0.02 82 998.3
20260508070050 46 222 4.0 18.0 0.00 0.05 0.02 84 998.3
20260508064552 46 292 7.0 22.0 0.00 0.15 0.02 84 998.4
20260508063053 47 238 8.0 22.0 0.00 0.15 0.02 84 998.7
20260508061545 48 249 8.0 22.0 0.00 0.15 0.02 81 998.6
20260508060059 48 256 8.0 23.0 0.00 0.15 0.02 80 998.6
20260508054538 48 264 6.0 20.0 0.00 0.24 0.02 82 998.6
20260508053036 48 216 8.0 18.0 0.00 0.24 0.02 83 998.8
20260508051531 48 235 8.0 21.0 0.01 0.24 0.02 85 998.5
20260508044527 47 205 7.0 19.0 0.01 0.80 0.02 89 998.4
20260508043025 47 242 6.0 21.0 0.01 0.80 0.02 90 998.2
20260508041523 48 206 7.0 23.0 0.00 0.80 0.01 91 998.3
20260508040020 48 261 8.0 24.0 0.01 0.97 0.01 91 998.1
20260508034524 48 267 10.0 20.0 0.01 0.97 0.01 91 998.1
20260508033015 48 242 8.0 21.0 0.01 0.97 0.01 91 998.0
20260508031513 49 259 6.0 19.0 0.01 0.97 0.01 91 997.9
20260508030009 49 265 6.0 12.0 0.01 0.96 0.96 92 997.8
20260508024521 49 238 7.0 21.0 0.02 0.96 0.96 91 997.7
20260508023005 49 281 7.0 21.0 0.02 0.96 0.96 92 997.7
20260508021501 50 279 9.0 22.0 0.02 0.96 0.96 92 997.6
20260508020126 50 246 9.0 20.0 0.02 0.95 0.95 91 997.7
20260508014558 50 220 9.0 18.0 0.01 0.94 0.94 90 997.8
20260508013058 50 220 11.0 24.0 0.01 0.94 0.94 90 998.0
20260508011532 50 237 9.0 20.0 0.01 0.94 0.94 91 998.0
20260508004554 51 272 9.0 18.0 0.00 0.94 0.94 89 998.0
20260508003016 52 252 8.0 19.0 0.00 0.94 0.94 86 998.3
20260508001527 53 262 9.0 26.0 0.00 0.94 0.94 83 998.3
20260508000010 53 237 11.0 22.0 0.00 0.94 0.94 83 998.1
20260507234510 53 289 8.0 22.0 0.00 0.94 0.94 84 998.0
20260507233007 53 250 7.0 16.0 0.00 0.94 0.94 84 997.9
20260507231505 53 233 6.0 20.0 0.00 0.94 0.94 86 998.1
20260507230004 53 279 7.0 15.0 0.00 0.94 0.94 88 998.4
20260507224502 53 241 7.0 14.0 0.00 0.94 0.94 87 998.5
20260507223058 54 255 6.0 12.0 0.00 0.94 0.94 84 998.5
20260507221557 54 263 8.0 19.0 0.00 0.94 0.94 83 998.4
20260507220059 54 239 6.0 21.0 0.00 0.94 0.94 84 997.9
20260507214555 55 255 10.0 18.0 0.00 0.94 0.94 80 997.7
20260507213049 56 267 7.0 15.0 0.00 0.94 0.94 78 997.5
20260507211550 56 271 5.0 15.0 0.00 0.94 0.94 77 997.8
20260507204545 56 244 8.0 19.0 0.00 0.94 0.94 75 997.8
20260507203109 57 265 8.0 18.0 0.00 0.94 0.94 74 997.4
20260507201540 57 261 8.0 22.0 0.00 0.94 0.94 73 997.2
20260507200041 58 249 8.0 21.0 0.00 0.94 0.94 72 996.5
20260507194538 58 267 7.0 18.0 0.00 0.94 0.94 72 995.7
20260507193040 58 247 9.0 18.0 0.00 0.94 0.94 72 995.9
20260507191539 58 240 6.0 16.0 0.00 0.94 0.94 73 996.0
20260507190034 58 234 9.0 20.0 0.00 0.94 0.94 74 997.3
20260507184534 58 252 6.0 18.0 0.00 0.94 0.94 74 997.7
20260507183033 58 261 8.0 16.0 0.00 0.94 0.94 74 998.0
20260507181529 58 223 10.0 18.0 0.00 0.94 0.94 75 998.9
20260507180029 58 260 5.0 18.0 0.00 0.94 0.94 76 999.4
20260507174537 58 260 7.0 16.0 0.00 0.94 0.94 77 999.0
20260507173048 57 242 6.0 12.0 0.00 0.94 0.94 78 997.9
20260507171526 57 214 5.0 8.0 0.00 0.94 0.94 79 997.1
20260507170024 57 238 4.0 14.0 0.00 0.94 0.94 79 997.7
20260507164522 57 300 2.0 15.0 0.00 0.94 0.94 79 998.6
20260507163020 57 247 6.0 18.0 0.01 0.94 0.94 78 999.1
20260507161519 58 265 9.0 15.0 0.01 0.94 0.94 78 998.6
20260507160019 58 231 7.0 16.0 0.01 0.94 0.94 78 997.3
20260507154515 58 207 6.0 11.0 0.01 0.94 0.94 80 997.6
20260507153013 58 257 5.0 18.0 0.00 0.93 0.93 81 997.9
20260507151511 59 286 8.0 15.0 0.00 0.93 0.93 80 998.0
20260507150012 59 226 8.0 14.0 0.00 0.93 0.93 83 997.8
20260507144509 59 251 6.0 16.0 0.00 0.93 0.93 86 998.5
20260507143008 60 244 3.0 10.0 0.00 0.93 0.93 87 998.1
20260507141507 60 204 5.0 11.0 0.00 0.93 0.93 86 997.1
20260507140007 60 169 5.0 10.0 0.00 1.02 0.93 86 997.2
20260507134506 60 192 6.0 14.0 0.00 1.02 0.93 87 997.7
20260507133005 60 228 1.0 6.0 0.00 1.02 0.93 87 998.1
20260507131501 60 280 0.0 6.0 0.00 1.02 0.93 88 998.5
20260507130108 59 275 2.0 8.0 0.00 1.02 0.93 88 999.4